When you browse on this site, cookies collect data to enhance your experience and personalize the content and advertising you see.
Visit our Privacy Policy to learn more. By continuing to use the site, you agree to this use of cookies and data.
  • en France
  • Liste des pays
  • À 7 jours
  • Température de l'eau
  • Carte satellitaire
  • Carte météo
  • Widgets météo
  • user-avatar
    Se connecter

    Météo par heure à Limoges

    Ce jour, 21 Mars, Jeudi

    Heure Température Précipitation Vent Pression Humidité
    00:00 +4°C° 0 mm 1 m/s 743 mmHg 93%
    01:00 +3°C° 0 mm 1 m/s 743 mmHg 92%
    02:00 +3°C° 0 mm 1 m/s 743 mmHg 92%
    03:00 +3°C° 0 mm 1 m/s 743 mmHg 91%
    04:00 +2°C° 0 mm 1 m/s 743 mmHg 91%
    05:00 +2°C° 0 mm 1 m/s 743 mmHg 91%
    06:00 +2°C° 0 mm 1 m/s 743 mmHg 91%
    07:00 +3°C° 0 mm 2 m/s 743 mmHg 79%
    08:00 +6°C° 0 mm 2 m/s 743 mmHg 68%
    09:00 +8°C° 0 mm 2 m/s 743 mmHg 57%
    10:00 +10°C° 0 mm 2 m/s 743 mmHg 52%
    11:00 +13°C° 0 mm 2 m/s 743 mmHg 46%
    12:00 +13°C° 0 mm 3 m/s 743 mmHg 41%
    13:00 +14°C° 0 mm 3 m/s 742 mmHg 42%
    14:00 +14°C° 0 mm 3 m/s 742 mmHg 43%
    15:00 +14°C° 0 mm 3 m/s 742 mmHg 44%
    16:00 +13°C° 0 mm 2 m/s 741 mmHg 52%
    17:00 +10°C° 0 mm 2 m/s 741 mmHg 61%
    18:00 +9°C° 0 mm 2 m/s 741 mmHg 69%
    19:00 +7°C° 0 mm 2 m/s 741 mmHg 73%
    20:00 +6°C° 0 mm 2 m/s 741 mmHg 78%
    21:00 +6°C° 0 mm 1 m/s 742 mmHg 82%
    22:00 +5°C° 0 mm 1 m/s 741 mmHg 82%
    23:00 +5°C° 0 mm 1 m/s 741 mmHg 81%

    Demain, 22 Mars, Vendredi

    Heure Température Précipitation Vent Pression Humidité
    00:00 +4°C° 0 mm 1 m/s 741 mmHg 81%
    01:00 +4°C° 0 mm 1 m/s 741 mmHg 82%
    02:00 +4°C° 0 mm 1 m/s 741 mmHg 82%
    03:00 +4°C° 0 mm 1 m/s 741 mmHg 83%
    04:00 +3°C° 0 mm 1 m/s 741 mmHg 82%
    05:00 +3°C° 0 mm 1 m/s 741 mmHg 82%
    06:00 +3°C° 0 mm 1 m/s 741 mmHg 82%
    07:00 +6°C° 0 mm 1 m/s 742 mmHg 71%
    08:00 +10°C° 0 mm 1 m/s 742 mmHg 60%
    09:00 +13°C° 0 mm 1 m/s 742 mmHg 50%
    10:00 +14°C° 0 mm 1 m/s 742 mmHg 46%
    11:00 +16°C° 0 mm 1 m/s 742 mmHg 42%
    12:00 +18°C° 0 mm 1 m/s 742 mmHg 38%
    13:00 +18°C° 0 mm 1 m/s 742 mmHg 39%
    14:00 +19°C° 0 mm 1 m/s 741 mmHg 40%
    15:00 +19°C° 0 mm 1 m/s 741 mmHg 42%
    16:00 +15°C° 0 mm 1 m/s 741 mmHg 52%
    17:00 +13°C° 0 mm 1 m/s 741 mmHg 62%
    18:00 +10°C° 0 mm 0 m/s 740 mmHg 72%
    19:00 +10°C° 0 mm 1 m/s 741 mmHg 77%
    20:00 +8°C° 0 mm 1 m/s 741 mmHg 82%
    21:00 +7°C° 0 mm 1 m/s 741 mmHg 87%
    22:00 +7°C° 0 mm 1 m/s 741 mmHg 88%
    23:00 +7°C° 0 mm 1 m/s 741 mmHg 90%

    Après-demain, 23 Mars, Samedi

    Heure Température Précipitation Vent Pression Humidité
    00:00 +6°C° 0 mm 1 m/s 741 mmHg 91%
    01:00 +5°C° 0 mm 0 m/s 741 mmHg 90%
    02:00 +5°C° 0 mm 0 m/s 741 mmHg 90%
    03:00 +5°C° 0 mm 0 m/s 740 mmHg 89%
    04:00 +4°C° 0 mm 0 m/s 740 mmHg 90%
    05:00 +4°C° 0 mm 0 m/s 740 mmHg 90%
    06:00 +4°C° 0 mm 0 m/s 740 mmHg 90%
    07:00 +8°C° 0 mm 1 m/s 741 mmHg 80%
    08:00 +11°C° 0 mm 1 m/s 741 mmHg 70%
    09:00 +13°C° 0 mm 1 m/s 741 mmHg 60%
    10:00 +15°C° 0 mm 1 m/s 741 mmHg 54%
    11:00 +18°C° 0 mm 1 m/s 741 mmHg 48%
    12:00 +19°C° 0 mm 1 m/s 740 mmHg 42%
    13:00 +19°C° 0 mm 1 m/s 740 mmHg 42%
    14:00 +19°C° 0 mm 1 m/s 739 mmHg 41%
    15:00 +20°C° 0 mm 1 m/s 739 mmHg 41%
    16:00 +16°C° 0 mm 1 m/s 739 mmHg 53%
    17:00 +14°C° 0 mm 1 m/s 738 mmHg 64%
    18:00 +12°C° 0 mm 1 m/s 738 mmHg 75%
    19:00 +11°C° 0 mm 1 m/s 738 mmHg 81%
    20:00 +10°C° 0 mm 1 m/s 739 mmHg 86%
    21:00 +8°C° 0 mm 1 m/s 739 mmHg 91%
    22:00 +8°C° 0 mm 1 m/s 739 mmHg 92%
    23:00 +7°C° 0 mm 1 m/s 738 mmHg 92%

    24 Mars, Dimanche

    Heure Température Précipitation Vent Pression Humidité
    00:00 +7°C° 0 mm 1 m/s 738 mmHg 92%
    01:00 +7°C° 0 mm 1 m/s 738 mmHg 92%
    02:00 +6°C° 0 mm 1 m/s 738 mmHg 92%
    03:00 +6°C° 0 mm 1 m/s 738 mmHg 92%
    04:00 +6°C° 0 mm 1 m/s 738 mmHg 92%
    05:00 +5°C° 0 mm 1 m/s 738 mmHg 92%
    06:00 +4°C° 0 mm 0 m/s 738 mmHg 92%
    07:00 +7°C° 0 mm 0 m/s 738 mmHg 81%
    08:00 +10°C° 0 mm 0 m/s 738 mmHg 71%
    09:00 +13°C° 0 mm 0 m/s 739 mmHg 60%
    10:00 +15°C° 0 mm 1 m/s 738 mmHg 55%
    11:00 +18°C° 0 mm 1 m/s 738 mmHg 50%
    12:00 +19°C° 0 mm 1 m/s 738 mmHg 45%
    13:00 +19°C° 0 mm 1 m/s 738 mmHg 46%
    14:00 +18°C° 0 mm 2 m/s 738 mmHg 47%
    15:00 +18°C° 0 mm 2 m/s 738 mmHg 48%
    16:00 +16°C° 0 mm 2 m/s 737 mmHg 57%
    17:00 +14°C° 0 mm 2 m/s 737 mmHg 67%
    18:00 +12°C° 0 mm 2 m/s 737 mmHg 77%
    19:00 +10°C° 0 mm 2 m/s 738 mmHg 82%
    20:00 +9°C° 0 mm 2 m/s 738 mmHg 88%
    21:00 +8°C° 0 mm 2 m/s 739 mmHg 94%
    22:00 +8°C° 0 mm 2 m/s 739 mmHg 94%
    23:00 +7°C° 0 mm 2 m/s 739 mmHg 94%

    25 Mars, Lundi

    Heure Température Précipitation Vent Pression Humidité
    00:00 +7°C° 0 mm 2 m/s 739 mmHg 95%
    01:00 +7°C° 0 mm 2 m/s 738 mmHg 94%
    02:00 +6°C° 0 mm 2 m/s 738 mmHg 94%
    03:00 +6°C° 0 mm 2 m/s 738 mmHg 93%
    04:00 +6°C° 0 mm 2 m/s 738 mmHg 93%
    05:00 +5°C° 0 mm 3 m/s 738 mmHg 94%
    06:00 +5°C° 0 mm 3 m/s 739 mmHg 94%
    07:00 +7°C° 0 mm 3 m/s 739 mmHg 89%
    08:00 +8°C° 0 mm 3 m/s 739 mmHg 85%
    09:00 +8°C° 0 mm 4 m/s 740 mmHg 80%
    10:00 +10°C° 0 mm 4 m/s 740 mmHg 75%
    11:00 +11°C° 0 mm 4 m/s 740 mmHg 69%
    12:00 +12°C° 0 mm 4 m/s 740 mmHg 63%
    13:00 +12°C° 0 mm 4 m/s 739 mmHg 61%
    14:00 +13°C° 0 mm 4 m/s 739 mmHg 59%
    15:00 +13°C° 0 mm 4 m/s 739 mmHg 57%
    16:00 +12°C° 0 mm 4 m/s 739 mmHg 60%
    17:00 +10°C° 0 mm 4 m/s 739 mmHg 63%
    18:00 +9°C° 0 mm 3 m/s 739 mmHg 66%
    19:00 +8°C° 0 mm 3 m/s 739 mmHg 68%
    20:00 +7°C° 0 mm 3 m/s 740 mmHg 71%
    21:00 +5°C° 0 mm 3 m/s 740 mmHg 74%
    22:00 +5°C° 0 mm 3 m/s 740 mmHg 76%
    23:00 +4°C° 0 mm 3 m/s 740 mmHg 77%

    26 Mars, Mardi

    Heure Température Précipitation Vent Pression Humidité
    00:00 +4°C° 0 mm 3 m/s 741 mmHg 79%
    01:00 +4°C° 0 mm 3 m/s 741 mmHg 80%
    02:00 +3°C° 0 mm 3 m/s 741 mmHg 82%
    03:00 +3°C° 0 mm 3 m/s 741 mmHg 83%
    04:00 +3°C° 0 mm 3 m/s 741 mmHg 84%
    05:00 +2°C° 0 mm 3 m/s 741 mmHg 86%
    06:00 +2°C° 0 mm 3 m/s 741 mmHg 88%
    07:00 +4°C° 0 mm 3 m/s 741 mmHg 79%
    08:00 +5°C° 0 mm 4 m/s 742 mmHg 71%
    09:00 +6°C° 0 mm 4 m/s 742 mmHg 62%
    10:00 +8°C° 0 mm 4 m/s 742 mmHg 57%
    11:00 +9°C° 0 mm 5 m/s 742 mmHg 51%
    12:00 +10°C° 0 mm 5 m/s 742 mmHg 46%
    13:00 +10°C° 0 mm 5 m/s 741 mmHg 46%
    14:00 +10°C° 0 mm 5 m/s 741 mmHg 46%
    15:00 +12°C° 0 mm 5 m/s 741 mmHg 46%
    16:00 +9°C° 0 mm 5 m/s 741 mmHg 51%
    17:00 +8°C° 0 mm 4 m/s 741 mmHg 56%
    18:00 +7°C° 0 mm 4 m/s 741 mmHg 61%
    19:00 +6°C° 0 mm 4 m/s 741 mmHg 64%
    20:00 +5°C° 0 mm 4 m/s 742 mmHg 66%
    21:00 +4°C° 0 mm 4 m/s 742 mmHg 69%
    22:00 +4°C° 0 mm 4 m/s 742 mmHg 68%
    23:00 +4°C° 0 mm 4 m/s 742 mmHg 68%
    Voir plus